AirNav   Air Wisconsin pilot careers
 
 1391 users online  

1L3 Searchlight Airport
Searchlight, Nevada, USA

GOING TO SEARCHLIGHT?


FAA INFORMATION EFFECTIVE 11 OCTOBER 2018

Location

FAA Identifier: 1L3
Lat/Long: 35-26-40.4000N / 114-54-33.7000W
35-26.673333N / 114-54.561667W
35.4445556 / -114.9093611
(estimated)
Elevation: 3413 ft. / 1040.3 m (surveyed)
Variation: 14E (1985)
From city: 2 miles S of SEARCHLIGHT, NV
Time zone: UTC -7 (UTC -8 during Standard Time)
Zip code: 89046

Airport Operations

Airport use: Open to the public
Activation date: 03/1953
Control tower: no
ARTCC: LOS ANGELES CENTER
FSS: RENO FLIGHT SERVICE STATION
NOTAMs facility: RNO (NOTAM-D service available)
Attendance: UNATNDD
Wind indicator: no
Segmented circle: no

Airport Communications

CTAF: 122.9

Nearby radio navigation aids

VOR radial/distance  VOR name  Freq  Var
GFSr020/22.9GOFFS VORTAC114.4015E
BLDr169/33.1BOULDER CITY VORTAC116.7015E

Airport Services

Parking: tiedowns
Airframe service: NONE
Powerplant service: NONE
Bottled oxygen: NONE
Bulk oxygen: NONE

Runway Information

Runway 16/34

Dimensions: 5040 x 70 ft. / 1536 x 21 m
Surface: asphalt, in fair condition
Runway edge markings: RWY 16/34 MARKINGS FADED.
Gradient: N
RUNWAY 16  RUNWAY 34
Latitude: 35-27.088338N35-26.259758N
Longitude: 114-54.600907W114-54.523957W
Elevation: 3413.0 ft.3300.0 ft.
Gradient: 2.4%2.2% UP
Traffic pattern: leftleft
Runway heading: 162 magnetic, 176 true342 magnetic, 356 true
Markings: basic, in poor conditionbasic, in poor condition
Runway end identifier lights: nono
Obstructions: 5 ft. fence, 275 ft. from runway, 15:1 slope to clear
+5 FT FENCE 83 FT LEFT AND PARALLEL TO CNTRLN.
5 ft. brush, 200 ft. from runway

Airport Ownership and Management from official FAA records

Ownership: Privately-owned
Owner: TURNBULL, LLC
6324 S. 199TH PLACE, SUITE 101
KENT, WA 98032
Phone 253-854-0090
Manager: JONATHAN DANIELS
PRAXIS AEROSPACE CONCEPTS INTL, 980 AMERICAN PACIFIC DR, SUITE 102
HENDERSON, NV 89014
Phone (702) 586-1160
PVT SECTION OF ARPT MANAGED BY PACI (HTTP://PRAXISAEROSPACE.COM/). CTC ARPT MGMT, PHONE 702-586-1160 OR EMAIL 1L3@PRAXISAEROSPACE.COM FOR PMSN PRIOR TO USE OR TO OBTAIN ARPT INFO.

Additional Remarks

LGTD 3481 FT MTN SW.
PROCS RQR THE USE OF TWO-WAY RADIOS DUE TO THE PRESENCE OF UNMANNED ACFT TFC.
UNLGTD 165 FT PLINE LCTD APRXLY 3.2 MILES SOUTH OF RWY BLO THLD.
GROUND RISES AT CONSTANT RATE NORTH OF ARPT FOR APPROX 2 MILES.
EXTENSIVE RUNWAY CRACKING
AIRFIELD CONDITION NOT MONITORED
UAS / UAV / EXPERIMENTAL ACFT TRAFFIC USING ARPT AND OPRG IN ARPT TRAFFIC AREA BY NOTAM.

Instrument Procedures

There are no published instrument procedures at 1L3.

Some nearby airports with instrument procedures:

KIFP - Laughlin/Bullhead International Airport (24 nm SE)
KBVU - Boulder City Municipal Airport (30 nm N)
KHND - Henderson Executive Airport (34 nm N)
KLAS - Mc Carran International Airport (40 nm N)
KEED - Needles Airport (43 nm S)
 
Loc | Ops | Rwys | IFR | FBO | Links
Com | Nav | Svcs | Stats | Notes


 
Area around 1L3 (Searchlight Airport)
 
Road maps at: MapQuest Bing Google
 
Aerial photo
WARNING: Photo may not be current or correct
Aerial photo of 1L3 (Searchlight Airport)
Do you have a better or more recent aerial photo of Searchlight Airport that you would like to share? If so, please send us your photo.

 
Sectional chart

 
Airport distance calculator
Flying to Searchlight Airport? Find the distance to fly.

From to 1L3

Sunrise and sunset
Times for 18-Oct-2018
 Local
(UTC-7)
 Zulu
(UTC)
Morning civil twilight06:2413:24
Sunrise06:5013:50
Sunset18:0001:00
Evening civil twilight18:2601:26

Current date and time
Zulu (UTC)  18-Oct-2018 20:37:22
Local (UTC-7)  18-Oct-2018 13:37:22
 
METAR
KBVU 
30nm N 
182015Z AUTO 08006KT 10SM CLR 22/01 A3016 RMK AO2
KHND 
34nm N 
181956Z 10SM CLR 20/01 A3019 RMK AO2 SLP217 T02000011 $
KIFP 
35nm SE 
181951Z 34020KT 10SM SKC 26/01 A3007
KLAS 
40nm N 
181956Z VRB05KT 10SM FEW110 22/02 A3016 RMK AO2 SLP200 T02170017
KEED 
43nm S 
181956Z AUTO 02016KT 10SM CLR 28/02 A3008 RMK AO2 SLP160 T02780017 $
KLSV 
47nm N 
181958Z AUTO 05009KT 10SM CLR 23/02 A3014 RMK AO2 SLPNO T02270016 $
KVGT 
47nm N 
181953Z 17005KT 10SM CLR 21/01 A3016 RMK AO2 SLP222 T02110006
KIGM 
49nm E 
181951Z AUTO 35011KT 10SM CLR 20/02 A3018 RMK AO2 SLP174 T02000022
TAF
KHND 
34nm N 
181720Z 1818/1918 02008KT P6SM FEW100 FM190300 VRB05KT P6SM SKC FM191600 01010KT P6SM SKC
KIFP 
35nm SE 
181720Z 1818/1918 35018KT P6SM SKC FM190100 35010KT P6SM SKC FM191200 36014KT P6SM SKC FM191600 36019G26KT P6SM SKC
KLAS 
40nm N 
181720Z 1818/1924 04008KT P6SM FEW100 FM190200 VRB05KT P6SM SKC FM190600 26006KT P6SM SKC FM190900 35007KT P6SM SKC FM191700 01010KT P6SM SKC FM191900 03013G22KT P6SM SKC
NOTAMs
Click for the latest NOTAMs
NOTAMs are issued by the DoD/FAA and will open in a separate window not controlled by AirNav.

 

 
 

Would you like to see your business listed on this page?

 If your business provides an interesting product or service to pilots, flight crews, aircraft, or users of the Searchlight Airport, you should consider listing it here.  To start the listing process, click on the button below
 
Add a business
 

Other Pages about Searchlight Airport

www.searchlightairpark.com
 
Update a link
 
Copyright © AirNav, LLC. All rights reserved. Privacy Policy  Contact